Regional Weather Roundup
Issued by NWS

Home | Current Version | Previous Version | Text Only | Print | Product List | Glossary Off
Versions: 1 2 3 4 5 6 7 8 9 10 11 12 13 14 15 16 17 18 19 20 21 22 23 24 25 26 27 28 29 30 31 32 33 34 35 36 37 38 39 40 41 42 43 44 45 46 47 48 49 50

266
ASUS43 KLOT 130303
RWRIL

ILLINOIS REGIONAL WEATHER ROUNDUP
NATIONAL WEATHER SERVICE CHICAGO/ROMEOVILLE IL
900 PM CST FRI FEB 12 2016

NOTE: "FAIR" INDICATES FEW OR NO CLOUDS BELOW 12,000 FEET WITH NO
SIGNIFICANT WEATHER AND/OR OBSTRUCTIONS TO VISIBILITY.

* THESE STATIONS ARE NOT UNDER NWS QUALITY CONTROL. THEY ALSO MAY NOT
  REPORT WEATHER SUCH AS PRECIPITATION OR FOG.

ILZ001-002-007-009-015-016-024-130400-
NORTHWEST ILLINOIS

CITY           SKY/WX    TMP DP  RH WIND       PRES   REMARKS
MOLINE         CLEAR     11  -2  56 NW21      30.50R WCI  -8
STERLING*      CLEAR     12  -2  52 NW15G23   30.43R WCI  -4
SAVANNA*       CLEAR     11  -4  49 NW12G18   30.48R WCI  -3
$$

ILZ003-004-008-010-011-017-018-130400-
NORTH CENTRAL ILLINOIS

CITY           SKY/WX    TMP DP  RH WIND       PRES   REMARKS
ROCKFORD       CLEAR     11  -6  46 N18       30.44R WCI  -7
FREEPORT*      CLEAR     10  -4  53 NW16      30.45R WCI  -8
ROCHELLE*      PTCLDY    12  -3  52 NW14G20   30.43R WCI  -4
DE KALB*       CLEAR     11  -4  50 N16G22    30.39R WCI  -5
$$

ILZ005-006-012>014-019>023-130400-
NORTHEAST ILLINOIS

CITY           SKY/WX    TMP DP  RH WIND       PRES   REMARKS
CHICAGO-OHARE  PTCLDY    11  -8  42 NW18G26   30.38R WCI  -7
CHICAGO-MIDWAY PTCLDY    13  -8  39 NW24G33   30.39R WCI  -7
AURORA         CLEAR     13  -1  54 N15       30.40R WCI  -3
LANSING*       CLEAR     14  -7  39 NW15G28   30.37R WCI  -2
WAUKEGAN       CLEAR      9  -8  46 NW14G28   30.38R WCI  -7
DUPAGE AIRPORT CLEAR     11  -7  44 N16G25    30.39R WCI  -6
WHEELING       CLEAR     10  -6  48 N18G28    30.40R WCI  -8
MORRIS*        PTCLDY    14  -1  50 N9G18     30.36R WCI   2
NORTHERLY ISL    N/A     13  -7  40 NW15        N/A  WCI  -3
$$

LMZ740>746-130400-
SOUTHERN LAKE MICHIGAN

STATION/POSITION SKY/WX   TEMP    WIND        PRES    VSBY  WAVE
                          AIR SEA DIR/SP/G                  HT/PER
                          (F)     (DEG/KT/KT) (MB)    (MI)  (FT/S)
HARRISON CRIB              15     330/ 32/ 34   N/A
BURNHAM HARBOR             13     320/ 18/ 24   N/A
CALUMET HARBOR             15                 1026.8R
BURNS HARBOR               18     330/ 26     1026.4R
MICHIGAN CITY              16     300/ 31/ 38   N/A
$$

ILZ025>027-034>036-040-047-049-050-058-095>099-130400-
WEST-CENTRAL ILLINOIS

CITY           SKY/WX    TMP DP  RH WIND       PRES   REMARKS
QUINCY         CLEAR     14   3  61 NW14      30.52R WCI  -1
MACOMB*        CLEAR     14   5  67 NW17G24   30.52R WCI  -3
$$

ILZ028>032-037-038-041>044-048-051>054-059>061-130400-
CENTRAL ILLINOIS

CITY           SKY/WX    TMP DP  RH WIND       PRES   REMARKS
BLOOMINGTON    CLEAR     14   3  61 NW14G21   30.42R WCI  -1
DECATUR        CLEAR     17   3  54 NW15      30.42R WCI   2
PEORIA         CLEAR     14   1  56 NW12G22   30.48R WCI   0
LACON*         CLEAR     13   2  62 NW13      30.45R WCI  -2
LINCOLN*       CLEAR     17   5  60 NW7       30.46R WCI   7
SPRINGFIELD    CLEAR     19   5  54 NW13      30.46R WCI   6
TAYLORVILLE    NOT AVBL
$$

ILZ033-039-045-046-055>057-062-063-130400-
EAST-CENTRAL ILLINOIS

CITY           SKY/WX    TMP DP  RH WIND       PRES   REMARKS
CHAMPAIGN      CLEAR     16   6  65 NW18      30.39R WCI   0
MATTOON        CLEAR     17   4  56 NW24G30   30.38R WCI  -1
$$

ILZ079-100>102-130400-
SOUTHWEST ILLINOIS

CITY           SKY/WX    TMP DP  RH WIND       PRES   REMARKS
ALTON          CLEAR     21   7  53 NW13G22   30.46S WCI   9
BELLEVILLE     CLEAR     23  10  58 NW6       30.46R WCI  15
CAHOKIA*       CLEAR     25   8  48 NW18G25   30.49R WCI  11
SPARTA*        CLEAR     26  13  60 NW10G18   30.47R WCI  15
$$

ILZ064>066-069>071-074>076-080>082-084>086-088>090-092>094-130400-
SOUTH-CENTRAL ILLINOIS

CITY           SKY/WX    TMP DP  RH WIND       PRES   REMARKS
CARBONDALE     CLEAR     25  14  63 NW9       30.46R WCI  15
CAIRO*         PTCLDY    29  20  69 N8        30.44R WCI  21
MARION         PTCLDY    27  16  63 NW5       30.45R WCI  21
MT. VERNON     CLEAR     25  10  54 NW6       30.43S WCI  18
CENTRALIA*     CLEAR     25  13  61 NW16      30.43R WCI  12
SALEM*         CLEAR     25  12  58 NW16      30.43R WCI  12
$$

ILZ067-068-072-073-078-083-087-091-130400-
SOUTHEAST ILLINOIS

CITY           SKY/WX    TMP DP  RH WIND       PRES   REMARKS
LAWRENCEVILLE  CLEAR     24  12  60 NW20G25   30.39R WCI  10
HARRISBURG*    CLEAR     26  15  65 NW9       30.44R WCI  16
ROBINSON*      CLEAR     22   5  48 NW22G31   30.40R WCI   7
CARMI*         PTCLDY    23  16  75 NW10      30.42R WCI  12
$$

ABBREVIATIONS USED IN REMARKS
   TC - TEMPERATURE IN CELSIUS
  WCI - WIND CHILL INDEX
   HX - HEAT INDEX
  VSB - VISIBILITY
$$





USA.gov is the U.S. government's official web portal to all federal, state and local government web resources and services.